Flag for Germany Weather past 2 weeks in Meissen, Saxony, Germany

48 °F

Passing clouds.

Feels Like: 44 °F
Forecast: 34 / 47 °F
Wind: 9 mph from Northeast

Location: Dresden-Klotzsche

Current Time: Oct 10, 2015 at 6:33:52 PM

Latest Report: Oct 10, 2015 at 5:50 PM

Visibility: N/A

Pressure: 30.12 "Hg

Humidity: 46%

Dew point: 28 °F

Location of MeissenLocation

Historic Weather in Meissen — Graph


Meissen temperature yesterday

Maximum temperature yesterday: 52 °F (at 1:50 PM)
Minimum temperature yesterday: 43 °F (at 11:20 PM)
Average temperature yesterday: 47 °F

Past Weeks' High & Low Weather Summary

High68 °F (Oct 5, 3:20 PM)100% (Sep 27, 7:20 AM)30.63 "Hg (Sep 27, 7:20 AM)
Low36 °F (Oct 1, 5:20 AM)39% (Oct 2, 2:50 PM)29.77 "Hg (Oct 6, 5:20 PM)
Average53 °F79%30.22 "Hg
* Reported Sep 25 5:20 PM — Oct 10 5:20 PM, Meissen, Weather by CustomWeather, © 2015

Note: Actual official high and low records may vary slightly from our data, if they occured in-between our weather recording intervals... More about our weather records


Meissen weather history for previous 24 hours

Time TempWeatherWind HumidityBarometerVisibility
5:20 PM
Sat, Oct 10
48 °FPassing clouds.9 mph43%30.12 "HgN/A
4:50 PM48 °FPassing clouds.16 mph43%30.12 "HgN/A
4:20 PM50 °FSunny.15 mph43%30.12 "Hg10 mi
3:50 PM50 °FSunny.15 mph50%30.12 "Hg10 mi
3:20 PM50 °FSunny.15 mph50%30.12 "Hg10 mi
2:50 PM50 °FSunny.15 mph54%30.12 "Hg10 mi
2:20 PM50 °FSunny.14 mph54%30.12 "Hg10 mi
1:50 PM50 °FSunny.13 mph54%30.12 "Hg10 mi
1:20 PM48 °FPassing clouds.13 mph62%30.12 "HgN/A
12:50 PM46 °FPassing clouds.14 mph62%30.12 "HgN/A
12:20 PM45 °FPassing clouds.14 mph66%30.15 "HgN/A
11:50 AM45 °FPassing clouds.14 mph66%30.15 "HgN/A
11:20 AM45 °FSunny.14 mph61%30.15 "Hg10 mi
10:50 AM45 °FSunny.10 mph66%30.15 "Hg10 mi
10:20 AM45 °FSunny.7 mph66%30.15 "Hg10 mi
9:50 AM41 °FScattered clouds.5 mph76%30.15 "HgN/A
9:20 AM37 °FPartly sunny.3 mph87%30.15 "HgN/A
8:50 AM37 °FBroken clouds.5 mph81%30.15 "HgN/A
8:20 AM36 °FScattered clouds.5 mph87%30.15 "HgN/A
7:50 AM36 °FPassing clouds.6 mph87%30.15 "HgN/A
7:20 AM36 °FPassing clouds.6 mph87%30.15 "HgN/A
6:50 AM37 °FPassing clouds.5 mph87%30.15 "HgN/A
6:20 AM39 °FPassing clouds.6 mph81%30.15 "HgN/A
5:50 AM39 °FPassing clouds.5 mph81%30.15 "HgN/A
5:20 AM39 °FChilly.3 mph81%30.15 "HgN/A
4:50 AM41 °FPassing clouds.5 mph76%30.15 "HgN/A
4:20 AM41 °FPassing clouds.6 mph76%30.15 "HgN/A
3:50 AM41 °FPassing clouds.6 mph81%30.15 "HgN/A
3:20 AM41 °FPassing clouds.3 mph81%30.15 "HgN/A
2:50 AM43 °FPassing clouds.3 mph76%30.15 "HgN/A
2:20 AM43 °FPassing clouds.3 mph76%30.15 "HgN/A
1:50 AM43 °FPassing clouds.5 mph76%30.15 "HgN/A
1:20 AM39 °FPassing clouds.3 mph87%30.15 "HgN/A
12:50 AM37 °FClear.6 mph87%30.15 "Hg10 mi
12:20 AM39 °FClear.7 mph87%30.15 "Hg10 mi
11:20 PM
Fri, Oct 9
43 °FClear.5 mph81%30.18 "Hg10 mi
10:50 PM45 °FClear.5 mph76%30.18 "Hg10 mi
10:20 PM46 °FPassing clouds.7 mph76%30.18 "HgN/A
9:50 PM46 °FPartly cloudy.7 mph76%30.18 "HgN/A
9:20 PM46 °FPassing clouds.6 mph76%30.18 "HgN/A
8:50 PM46 °FClear.6 mph76%30.18 "Hg10 mi
8:20 PM46 °FPartly cloudy.8 mph76%30.18 "HgN/A
7:50 PM48 °FPassing clouds.7 mph71%30.15 "HgN/A
7:20 PM48 °FPartly sunny.8 mph76%30.15 "HgN/A
6:50 PM48 °FPartly sunny.7 mph87%30.15 "HgN/A
6:20 PM48 °FOvercast.6 mph87%30.15 "HgN/A
Weather by CustomWeather, © 2015

See weather overviewHow to use our weather pages